Arjeplog, Sweden

1:30 PM CET on February 13, 2016 (GMT +0100)
Arvidsjaur | | Change Station
CLOSE
Current Station
Airport
Location: Arvidsjaur Airport,
Elevation: 1243 ft
Nearby Weather Stations

Elev 1243 ft 65.59 °N, 19.28 °E | Updated 10 minutes ago

Light Snow
Light Snow
25 °F
Feels Like 16 °F
N
8
Wind Variable Wind from NE

Today
High -- | Low -- °F
--% Chance of Precip.
Yesterday
High -- | Low -- °F
Precip. -- in
Pressure 29.44 in
Visibility -9999.0 miles
Clouds Mostly Cloudy 1000 ft
Overcast 1800 ft
Windchill 16 °F
Dew Point 23 °F
Humidity 93%
Rainfall 0.00 in
Snow Depth Not available.
8:03 AM 4:02 PM
Waxing Crescent, 30% visible
METAR ESNX 131220Z AUTO 04007KT 3700NDV -SN BKN010/// OVC018/// M04/M05 Q0997
Pressure 29.44 in
Visibility -9999.0 miles
Clouds Mostly Cloudy 1000 ft
Overcast 1800 ft
Windchill 16 °F
Dew Point 23 °F
Humidity 93%
Rainfall 0.00 in
Snow Depth Not available.
8:03 AM 4:02 PM
Waxing Crescent, 30% visible
METAR ESNX 131220Z AUTO 04007KT 3700NDV -SN BKN010/// OVC018/// M04/M05 Q0997

10-Day Weather Forecast

Almanac

Astronomy

Feb. 13, 2016 Rise Set
Actual Time
Civil Twilight
Nautical Twilight
Astronomical Twilight
Moon
Length of Visible Light
Length of Day
Tomorrow will be .
, % of the Moon is Illuminated

Today's Extremes

Country Highs Country Lows

Community

WunderPhotos

Upload Photos

1,892,543 photos uploaded!

WunderBlog® & News

Nearby

Air Quality

  Air Quality AQ Index Pollutant
Not available.

Snow Depth

Station Depth Elevation

Earthquake Activity

City Distance Mag. Time & Date
Minimum magnitude displayed is 2.5.

Coastal Water Temperatures

Place Temperature

Stations

Nearby Weather Stations

Station Location Temp. Windchill Dew Point Humidity Wind Precip. Elev Updated Type